When you browse on this site, cookies collect data to enhance your experience and personalize the content and advertising you see.
Visit our Privacy Policy to learn more. By continuing to use the site, you agree to this use of cookies and data.
  • en France
  • Liste des pays
  • À 7 jours
  • Température de l'eau
  • Carte satellitaire
  • Carte météo
  • Widgets météo
  • user-avatar
    Se connecter

    Météo par heure à Shеki

    Ce jour, 16 Février, Samedi

    Heure Température Précipitation Vent Pression Humidité
    00:00 +6°C° 0.1 mm 0 m/s 736 mmHg 80%
    01:00 +5°C° 0.2 mm 0 m/s 735 mmHg 82%
    02:00 +5°C° 0.2 mm 0 m/s 735 mmHg 83%
    03:00 +5°C° 0.2 mm 0 m/s 735 mmHg 84%
    04:00 +5°C° 0.3 mm 0 m/s 735 mmHg 84%
    05:00 +5°C° 0.3 mm 0 m/s 735 mmHg 84%
    06:00 +6°C° 0.3 mm 1 m/s 735 mmHg 84%
    07:00 +6°C° 0.2 mm 1 m/s 735 mmHg 78%
    08:00 +6°C° 0.2 mm 1 m/s 735 mmHg 73%
    09:00 +6°C° 0.2 mm 2 m/s 735 mmHg 67%
    10:00 +7°C° 0 mm 2 m/s 735 mmHg 60%
    11:00 +7°C° 0 mm 3 m/s 735 mmHg 54%
    12:00 +8°C° 0 mm 3 m/s 734 mmHg 47%
    13:00 +9°C° 0 mm 3 m/s 734 mmHg 47%
    14:00 +9°C° 0 mm 3 m/s 734 mmHg 47%
    15:00 +9°C° 0 mm 3 m/s 733 mmHg 47%
    16:00 +8°C° 0 mm 3 m/s 734 mmHg 49%
    17:00 +7°C° 0 mm 2 m/s 734 mmHg 51%
    18:00 +7°C° 0 mm 1 m/s 734 mmHg 53%
    19:00 +7°C° 0 mm 1 m/s 734 mmHg 54%
    20:00 +7°C° 0 mm 1 m/s 734 mmHg 54%
    21:00 +7°C° 0 mm 1 m/s 734 mmHg 55%
    22:00 +6°C° 0.1 mm 1 m/s 734 mmHg 58%
    23:00 +6°C° 0.1 mm 1 m/s 734 mmHg 61%

    Demain, 17 Février, Dimanche

    Heure Température Précipitation Vent Pression Humidité
    00:00 +6°C° 0.1 mm 1 m/s 734 mmHg 64%
    01:00 +5°C° 0.1 mm 1 m/s 734 mmHg 65%
    02:00 +5°C° 0.1 mm 1 m/s 734 mmHg 67%
    03:00 +5°C° 0.1 mm 1 m/s 734 mmHg 69%
    04:00 +4°C° 0.1 mm 1 m/s 734 mmHg 69%
    05:00 +4°C° 0.1 mm 1 m/s 734 mmHg 69%
    06:00 +4°C° 0.1 mm 1 m/s 734 mmHg 69%
    07:00 +5°C° 0 mm 1 m/s 734 mmHg 67%
    08:00 +4°C° 0 mm 2 m/s 735 mmHg 64%
    09:00 +5°C° 0 mm 2 m/s 735 mmHg 61%
    10:00 +5°C° 0 mm 3 m/s 735 mmHg 59%
    11:00 +7°C° 0 mm 3 m/s 735 mmHg 56%
    12:00 +7°C° 0 mm 4 m/s 735 mmHg 53%
    13:00 +8°C° 0 mm 4 m/s 734 mmHg 51%
    14:00 +8°C° 0 mm 4 m/s 734 mmHg 50%
    15:00 +8°C° 0 mm 4 m/s 734 mmHg 48%
    16:00 +8°C° 0 mm 3 m/s 734 mmHg 51%
    17:00 +8°C° 0 mm 2 m/s 734 mmHg 54%
    18:00 +8°C° 0 mm 1 m/s 734 mmHg 57%
    19:00 +7°C° 0 mm 1 m/s 734 mmHg 59%
    20:00 +7°C° 0 mm 1 m/s 735 mmHg 61%
    21:00 +6°C° 0 mm 1 m/s 735 mmHg 63%
    22:00 +6°C° 0 mm 1 m/s 735 mmHg 65%
    23:00 +5°C° 0 mm 1 m/s 734 mmHg 67%

    Après-demain, 18 Février, Lundi

    Heure Température Précipitation Vent Pression Humidité
    00:00 +4°C° 0 mm 0 m/s 734 mmHg 69%
    01:00 +5°C° 0 mm 1 m/s 734 mmHg 68%
    02:00 +5°C° 0 mm 1 m/s 733 mmHg 67%
    03:00 +4°C° 0 mm 2 m/s 733 mmHg 65%
    04:00 +3°C° 0 mm 2 m/s 733 mmHg 65%
    05:00 +3°C° 0 mm 2 m/s 732 mmHg 64%
    06:00 +3°C° 0 mm 2 m/s 732 mmHg 64%
    07:00 +4°C° 0 mm 3 m/s 732 mmHg 59%
    08:00 +5°C° 0 mm 4 m/s 732 mmHg 53%
    09:00 +6°C° 0 mm 4 m/s 732 mmHg 48%
    10:00 +7°C° 0 mm 5 m/s 731 mmHg 45%
    11:00 +9°C° 0 mm 5 m/s 731 mmHg 43%
    12:00 +10°C° 0 mm 6 m/s 730 mmHg 40%
    13:00 +10°C° 0 mm 6 m/s 730 mmHg 40%
    14:00 +10°C° 0 mm 6 m/s 729 mmHg 40%
    15:00 +10°C° 0 mm 6 m/s 729 mmHg 40%
    16:00 +9°C° 0 mm 5 m/s 729 mmHg 43%
    17:00 +8°C° 0 mm 4 m/s 729 mmHg 45%
    18:00 +7°C° 0 mm 3 m/s 729 mmHg 47%
    19:00 +7°C° 0 mm 3 m/s 729 mmHg 49%
    20:00 +6°C° 0 mm 2 m/s 730 mmHg 51%
    21:00 +6°C° 0 mm 2 m/s 730 mmHg 53%
    22:00 +6°C° 0 mm 1 m/s 730 mmHg 57%
    23:00 +6°C° 0 mm 1 m/s 730 mmHg 60%

    19 Février, Mardi

    Heure Température Précipitation Vent Pression Humidité
    00:00 +5°C° 0 mm 1 m/s 730 mmHg 64%
    01:00 +5°C° 0.1 mm 1 m/s 731 mmHg 66%
    02:00 +4°C° 0.1 mm 1 m/s 731 mmHg 68%
    03:00 +3°C° 0.1 mm 0 m/s 731 mmHg 69%
    04:00 +4°C° 0.1 mm 1 m/s 732 mmHg 72%
    05:00 +3°C° 0.1 mm 1 m/s 732 mmHg 74%
    06:00 +2°C° 0.1 mm 2 m/s 733 mmHg 76%
    07:00 +3°C° 0.2 mm 2 m/s 734 mmHg 77%
    08:00 +2°C° 0.2 mm 3 m/s 734 mmHg 78%
    09:00 +3°C° 0.2 mm 3 m/s 735 mmHg 79%
    10:00 +3°C° 0.4 mm 3 m/s 735 mmHg 81%
    11:00 +3°C° 0.4 mm 4 m/s 736 mmHg 83%
    12:00 +3°C° 0.4 mm 4 m/s 736 mmHg 85%
    13:00 +3°C° 0.2 mm 4 m/s 737 mmHg 85%
    14:00 +1°C° 0.2 mm 4 m/s 737 mmHg 84%
    15:00 +1°C° 0.2 mm 4 m/s 737 mmHg 84%
    16:00 +1°C° 0.2 mm 4 m/s 738 mmHg 85%
    17:00 0°C° 0.2 mm 4 m/s 739 mmHg 86%
    18:00 +1°C° 0.2 mm 3 m/s 740 mmHg 87%
    19:00 +1°C° 0.1 mm 3 m/s 741 mmHg 87%
    20:00 0°C° 0.1 mm 3 m/s 742 mmHg 88%
    21:00 0°C° 0.1 mm 3 m/s 743 mmHg 88%
    22:00 -1°C° 0 mm 3 m/s 743 mmHg 87%
    23:00 -1°C° 0 mm 2 m/s 744 mmHg 86%

    20 Février, Mercredi

    Heure Température Précipitation Vent Pression Humidité
    00:00 -1°C° 0 mm 2 m/s 744 mmHg 86%
    01:00 -1°C° 0 mm 2 m/s 744 mmHg 84%
    02:00 -2°C° 0 mm 2 m/s 744 mmHg 82%
    03:00 -2°C° 0 mm 2 m/s 744 mmHg 80%
    04:00 0°C° 0 mm 1 m/s 744 mmHg 78%
    05:00 0°C° 0 mm 1 m/s 744 mmHg 77%
    06:00 0°C° 0 mm 1 m/s 745 mmHg 75%
    07:00 +1°C° 0 mm 1 m/s 745 mmHg 73%
    08:00 +2°C° 0 mm 1 m/s 745 mmHg 71%
    09:00 +3°C° 0 mm 1 m/s 745 mmHg 69%
    10:00 +2°C° 0 mm 2 m/s 744 mmHg 68%
    11:00 +3°C° 0 mm 2 m/s 744 mmHg 67%
    12:00 +4°C° 0 mm 2 m/s 744 mmHg 66%
    13:00 +5°C° 0 mm 2 m/s 743 mmHg 65%
    14:00 +5°C° 0 mm 2 m/s 742 mmHg 64%
    15:00 +6°C° 0 mm 2 m/s 742 mmHg 63%
    16:00 +6°C° 0 mm 1 m/s 742 mmHg 67%
    17:00 +5°C° 0 mm 1 m/s 742 mmHg 71%
    18:00 +4°C° 0 mm 1 m/s 742 mmHg 75%
    19:00 +3°C° 0 mm 1 m/s 742 mmHg 75%
    20:00 +3°C° 0 mm 1 m/s 742 mmHg 75%
    21:00 +3°C° 0 mm 1 m/s 742 mmHg 74%
    22:00 +3°C° 0 mm 1 m/s 741 mmHg 74%
    23:00 +2°C° 0 mm 1 m/s 741 mmHg 73%

    21 Février, Jeudi

    Heure Température Précipitation Vent Pression Humidité
    00:00 +2°C° 0 mm 1 m/s 741 mmHg 73%
    01:00 +2°C° 0 mm 1 m/s 740 mmHg 71%
    02:00 +2°C° 0 mm 1 m/s 740 mmHg 69%
    03:00 +2°C° 0 mm 1 m/s 739 mmHg 68%
    04:00 +2°C° 0 mm 1 m/s 739 mmHg 65%
    05:00 +2°C° 0 mm 1 m/s 739 mmHg 62%
    06:00 +2°C° 0 mm 1 m/s 739 mmHg 60%
    07:00 +3°C° 0 mm 1 m/s 739 mmHg 56%
    08:00 +5°C° 0 mm 1 m/s 739 mmHg 52%
    09:00 +6°C° 0 mm 1 m/s 739 mmHg 49%
    10:00 +6°C° 0 mm 2 m/s 739 mmHg 46%
    11:00 +7°C° 0 mm 2 m/s 738 mmHg 44%
    12:00 +9°C° 0 mm 2 m/s 738 mmHg 42%
    13:00 +9°C° 0 mm 2 m/s 737 mmHg 39%
    14:00 +10°C° 0 mm 2 m/s 737 mmHg 37%
    15:00 +10°C° 0 mm 2 m/s 737 mmHg 34%
    16:00 +9°C° 0 mm 2 m/s 737 mmHg 36%
    17:00 +8°C° 0 mm 1 m/s 737 mmHg 37%
    18:00 +7°C° 0 mm 1 m/s 737 mmHg 39%
    19:00 +6°C° 0 mm 1 m/s 738 mmHg 38%
    20:00 +6°C° 0 mm 1 m/s 738 mmHg 37%
    21:00 +4°C° 0 mm 2 m/s 738 mmHg 35%
    22:00 +4°C° 0 mm 2 m/s 738 mmHg 35%
    23:00 +4°C° 0 mm 2 m/s 738 mmHg 34%
    Voir plus